Погода в Кильоте

Чили     32°52′41″S   71°15′00″W
темп.,
°C
ветер,
м/с
пор.,
м/с
влажн.,
%
обл.,
%
осадки,
мм/ч
давл.,
гПа
погр.,
м
16 мая, вс
вс1623:00+13ююв1164100 0.0 101811
02:00+13ю116092 0.0 101711
05:00+12ююв1160100 0.0 101611
08:00+14в115399 0.0 101511
11:00+23з1029100 0.0 1015383
14:00+26з1124100 0.0 1012655
17:00+23зсз2234100 0.0 101333
20:00+17з1148100 0.0 101411
17 мая, пн
пн1723:00+16ююз0053100 0.0 101511
02:00+15всв1153100 0.0 101511
05:00+15св0054100 0.0 101411
08:00+14ю1154100 0.0 101511
11:00+23зсз113297 0.0 1014344
14:00+26зсз212795 0.0 1012616
17:00+20зсз2245100 0.0 1013127
20:00+15ссв0063100 0.0 101411
18 мая, вт
вт1823:00+14всв0064100 0.0 101411
02:00+14всв0165100 0.0 101310
05:00+12зсз1173100 0.0 101310
08:00+12св1173100 0.0 101411
11:00+19зсз214496 0.0 1015408
14:00+20зсз3347100 0.0 1014682
17:00+16зсз1166100 0.0 1015348
20:00+12з11805 0.0 101412
19 мая, ср
ср1923:00+10вюв00945 0.0 101610
02:00+10в229399 0.0 101616
05:00+9в1193100 0.0 101710
08:00+10в2290100 0.0 101824
11:00+15св1263100 0.0 1019300
14:00+16ссв2351100 0.0 1019629
17:00+15з226292 0.0 1019267
20:00+10ю01842 0.0 102010
20 мая, чт
чт2023:00+10ююв11805 0.0 101911
02:00+9юв11775 0.0 101810
05:00+9вюв11745 0.0 101710
08:00+9вюв11705 0.0 101810
11:00+16з22502 0.0 1018650
14:00+18зсз32496 0.0 10171268
17:00+14зюз3369100 0.0 1018646
20:00+10ююз1186100 0.0 101944